SCP
0 0 0 0 0 0 0 0 0 0 0 0 0 0 0 0 0 0 0 0 0 0 0 0 0 0 0 0 0 0 0 0 0 0 0 0 0 0 0 0 0 0 0
0 0 0 0 0 0 0 0 0 0 0 0 0 0 0 0 0 0 0 0 0 0 0 0 0 0 0 0 0 0 0 0 0 0 0 0 0 0 0 0 0 0 0
0 0 0 0 0 0 0 0 0 0 0 0 0 0 0 0 0 0 0 0 0 0 0 0 0 0 0 0 0 0 0 0 0 0 0 0 0 0 0 0 0 0 0
0 0 0 0 0 0 0 0 0 0 0 0 0 0 0 0 0 0 0 0 0 0 0 0 0 0 0 0 0 0 0 0 0 0 0 0 0 0 0 0 0 0 0
0 0 0 0 0 0 0 0 0 0 0 0 0 0 0 0 0 0 0 0 0 0 0 0 0 0 0 0 0 0 0 0 0 0 0 0 0 0 0 0 0 0 0
0 0 0 0 0 0 0 0 0 0 0 0 0 0 0 0 0 0 0 0 0 0 0 0 0 0 0 0 0 0 0 0 0 0 0 0 0 0 0 0 0 0 0
0 0 0 0 0 0 0 0 0 0 0 0 0 0 0 0 0 0 0 0 0 0 0 0 0 0 0 0 0 0 0 0 0 0 0 0 0 0 0 0 0 0 0
0 0 0 0 0 0 0 0 0 0 0 0 0 0 0 0 0 0 0 0 0 0 0 0 0 0 0 0 0 0 0 0 0 0 0 0 0 0 0 0 0 0 0
0 0 0 0 0 0 0 0 0 0 0 0 0 0 0 0 0 0 0 0 0 0 0 0 0 0 0 0 0 0 0 0 0 0 0 0 0 0 0 0 0 0 0
0 0 0 0 0 0 0 0 0 0 0 0 0 0 0 0 0 0 0 0 0 0 0 0 0 0 0 0 0 0 0 0 0 0 0 0 0 0 0 0 0 0 0
0 0 0 0 0 0 0 0 0 0 0 0 0 0 0 0 0 0 0 0 0 0 0 0 0 0 0 0 0 0 0 0 0 0 0 0 0 0 0 0 0 0 0
0 0 0 0 0 0 0 0 0 0 0 0 0 0 0 0 0 0 0 0 0 0 0 0 0 0 0 0 0 0 0 0 0 0 0 0 0 0 0 0 0 0 0
0 0 0 0 0 0 0 0 0 0 0 0 0 0 0 0 0 0 0 0 0 0 0 0 0 0 0 0 0 0 0 0 0 0 0 0 0 0 0 0 0 0 0
0 0 0 0 0 0 0 0 0 0 0 0 0 0 0 0 0 0 0 0 0 0 0 0 0 0 0 0 0 0 0 0 0 0 0 0 0 0 0 0 0 0 0
0 0 0 0 0 0 0 0 0 0 0 0 0 0 0 0 0 0 0 0 0 0 0 0 0 0 0 0 0 0 0 0 0 0 0 0 0 0 0 0 0 0 0
0 0 0 0 0 0 0 0 0 0 0 0 0 0 0 0 0 0 0 0 0 0 0 0 0 0 0 0 0 0 0 0 0 0 0 0 0 0 0 0 0 0 0
0 0 0 0 0 0 0 0 0 0 0 0 0 0 0 0 0 0 0 0 0 0 0 0 0 0 0 0 0 0 0 0 0 0 0 0 0 0 0 0 0 0 0
0 0 0 0 0 0 0 0 0 0 0 0 0 0 0 0 0 0 0 0 0 0 0 0 0 0 0 0 0 0 0 0 0 0 0 0 0 0 0 0 0 0 0
0 0 0 0 0 0 0 0 0 0 0 0 0 0 0 0 0 0 0 0 0 0 0 0 0 0 0 0 0 0 0 0 0 0 0 0 0 0 0 0 0 0 0
0 0 0 0 0 0 0 0 0 0 0 0 0 0 0 0 0 0 0 0 0 0 0 0 0 0 0 0 0 0 0 0 0 0 0 0 0 0 0 0 0 0 0
0 0 0 0 0 0 0 0 0 0 0 0 0 0 0 0 0 0 0 0 0 0 0 0 0 0 0 0 0 0 0 0 0 0 0 0 0 0 0 0 0 0 0
0 0 0 0 0 0 0 0 0 0 0 0 0 0 0 0 0 0 0 0 0 0 0 0 0 0 0 0 0 0 0 0 0 0 0 0 0 0 0 0 0 0 0
0 0 0 0 0 0 0 0 0 0 0 0 0 0 0 0 0 0 0 0 0 0 0 0 0 0 0 0 0 0 0 0 0 0 0 0 0 0 0 0 0 0 0
0 0 0 0 0 0 0 0 0 0 0 0 0 0 0 0 0 0 0 0 0 0 0 0 0 0 0 0 0 0 0 0 0 0 0 0 0 0 0 0 0 0 0
0 0 0 0 0 0 0 0 0 0 0 0 0 0 0 0 0 0 0 0 0 0 0 0 0 0 0 0 0 0 0 0 0 0 0 0 0 0 0 0 0 0 0
0 0 0 0 0 0 0 0 0 0 0 0 0 0 0 0 0 0 0 0 0 0 0 0 0 0 0 0 0 0 0 0 0 0 0 0 0 0 0 0 0 0 0
Wind_Speed_500mb
37 42 47 49 48 48 49 52 55 54 54 54 53 50 47 45 41 36 41 30 23 22 23 20 19 19 15 16 16 19 21 20 21 13 8 1 6 2 3 9 9 23 30
38 41 46 53 56 54 54 52 58 59 61 59 55 54 52 49 48 42 34 31 31 28 28 27 22 23 21 24 21 22 22 24 25 15 7 7 4 8 13 8 17 24 25
46 47 53 57 58 66 66 64 67 65 65 64 59 57 49 47 47 46 44 39 37 35 33 30 26 30 29 27 25 28 26 31 25 15 8 6 7 10 13 16 19 23 24
50 48 55 62 71 74 70 69 69 71 70 67 66 64 64 61 56 52 43 45 43 41 35 33 33 35 34 33 36 34 32 33 31 19 16 15 14 5 4 17 23 22 21
60 60 64 68 72 77 81 81 79 76 75 74 72 70 67 65 56 53 54 52 44 42 41 38 39 41 43 44 41 38 37 37 32 27 19 19 16 15 15 12 16 19 18
60 65 59 68 72 75 81 86 88 86 84 81 80 79 76 70 64 62 64 61 56 53 49 46 43 42 41 44 42 39 43 38 33 28 24 20 17 15 16 14 14 14 18
58 68 71 74 75 80 85 87 88 89 90 90 88 86 84 74 73 71 72 67 64 64 58 53 51 45 38 43 42 45 40 36 34 29 25 21 18 17 15 13 13 11 12
49 54 59 73 78 77 85 88 92 89 91 92 93 91 86 83 76 74 80 76 73 66 58 54 55 45 39 44 45 46 46 40 35 30 26 23 18 17 14 11 6 6 7
24 33 45 56 68 73 83 90 90 91 91 91 91 94 91 88 84 81 79 81 75 74 63 60 57 51 44 49 49 48 46 43 37 32 27 22 19 17 14 10 5 3 8
18 23 25 32 50 62 70 76 86 92 92 92 91 94 93 94 91 84 82 85 78 72 71 67 62 60 52 51 52 51 49 45 39 33 28 25 20 18 14 10 7 6 4
9 8 14 26 35 41 51 65 71 78 87 89 95 97 96 93 90 91 86 87 74 72 78 77 69 65 58 53 52 52 51 47 40 34 30 26 22 19 15 10 8 8 7
20 24 24 25 28 29 42 55 60 68 78 87 92 95 96 92 86 86 84 81 75 71 77 80 76 70 60 54 55 56 52 47 41 35 30 27 24 20 16 11 8 8 8
14 31 42 41 39 33 29 38 53 64 68 74 76 81 88 83 80 77 75 76 73 71 73 85 71 73 64 59 59 57 51 47 41 37 32 28 27 22 18 14 11 8 7
38 51 36 37 44 39 34 32 37 48 58 64 66 69 75 75 74 75 76 75 73 72 81 88 80 78 62 61 61 58 53 48 43 38 33 31 29 24 19 15 13 11 8
39 39 43 42 43 43 39 39 36 38 45 52 58 64 66 66 69 71 73 75 74 73 74 81 91 72 66 66 64 59 53 49 44 40 35 34 31 26 21 17 17 14 13
43 49 47 52 53 46 40 39 38 38 41 45 52 57 59 62 67 69 69 68 72 73 82 92 79 75 72 69 62 56 54 49 47 42 39 38 34 30 25 21 20 17 17
46 42 52 55 57 45 40 35 33 37 39 43 46 53 53 54 58 60 59 60 66 73 84 83 69 71 67 65 61 58 55 51 47 45 41 38 35 32 29 26 25 23 19
47 48 51 55 45 38 37 31 32 34 39 41 45 49 51 50 48 49 53 59 65 70 75 71 76 64 66 68 63 59 57 53 49 45 42 38 37 33 30 31 30 28 24
46 41 35 34 31 30 29 25 29 32 35 42 44 45 47 46 46 49 52 60 66 72 72 72 72 67 73 69 65 64 59 53 50 47 43 42 37 33 35 36 35 34 31
14 15 16 15 15 18 21 20 22 25 32 38 39 42 44 46 46 46 50 53 61 74 76 72 65 71 71 68 65 61 59 56 56 51 47 42 39 31 42 39 39 42 34
8 12 13 15 14 13 16 18 19 19 23 30 36 38 43 45 46 47 53 56 60 70 74 70 70 73 72 69 65 61 61 59 55 50 45 41 33 38 42 42 45 44 39
7 13 17 16 17 17 15 13 12 14 16 20 27 32 38 44 46 49 57 62 67 73 74 74 73 74 72 69 67 64 59 57 54 48 43 37 34 43 46 50 49 46 47
9 13 13 15 15 15 15 15 17 19 20 22 21 25 30 38 44 48 53 61 69 76 78 77 78 79 76 74 71 67 60 57 51 46 39 35 39 49 58 56 51 52 55
6 10 13 15 19 19 18 15 14 18 20 22 22 24 27 32 38 46 51 57 67 75 80 82 84 83 80 76 73 67 62 57 53 45 37 40 42 63 60 59 56 61 59
8 12 15 17 18 19 20 20 21 22 21 20 21 22 24 28 33 39 47 55 65 72 79 82 84 86 83 75 68 66 66 58 48 40 42 46 63 70 67 60 65 64 64
14 14 16 15 16 17 19 20 21 22 23 22 21 22 24 27 31 34 42 52 63 71 76 81 84 81 73 65 62 62 55 52 49 49 52 71 73 72 65 69 69 66 64
Wind_Direction_500mb
227 222 217 212 207 209 206 207 210 213 213 215 217 220 222 224 223 225 227 238 235 239 247 247 252 253 264 274 286 295 298 304 305 343 328 309 150 89 335 337 343 342 349
219 221 218 212 210 210 209 209 214 217 220 221 224 228 233 235 236 236 240 237 241 239 238 248 255 259 258 265 270 285 291 288 291 301 332 187 249 297 310 319 328 340 347
219 214 214 215 212 213 214 213 219 220 223 224 225 228 231 232 233 230 233 231 236 234 242 244 251 254 261 264 271 278 278 279 279 280 259 217 205 266 287 304 329 338 346
220 218 216 216 216 221 218 223 221 223 225 225 225 229 228 228 230 235 242 236 239 245 239 248 255 255 256 262 271 273 268 264 265 272 265 250 257 212 224 304 318 330 342
217 221 218 231 227 226 229 228 227 227 229 229 229 231 232 236 240 236 239 234 235 241 245 251 252 257 261 262 264 267 264 259 254 263 254 254 257 264 255 264 281 323 332
218 224 233 234 235 231 231 231 233 233 232 233 233 234 235 236 235 234 234 238 236 238 245 253 255 257 258 258 261 262 263 252 249 252 250 252 259 262 252 252 279 290 297
230 226 229 231 236 234 233 233 234 235 236 235 236 237 239 239 239 239 242 241 239 239 239 245 252 257 261 257 256 265 253 243 246 241 245 251 257 260 257 247 250 259 272
232 234 232 234 238 238 237 236 236 235 235 236 240 240 239 239 239 237 247 247 246 248 246 247 245 244 257 260 254 261 246 243 237 239 241 250 256 258 259 258 247 282 283
251 239 240 237 240 239 238 240 240 239 238 238 239 241 242 241 238 238 241 250 248 242 244 241 241 241 246 253 249 253 242 231 232 236 242 250 257 260 265 270 280 218 217
255 267 273 263 253 248 247 245 244 243 243 242 241 241 242 242 241 239 239 245 251 243 239 240 237 239 238 254 249 240 230 229 229 232 241 249 249 253 258 267 283 306 284
358 327 269 270 272 262 255 253 250 248 247 243 241 240 241 241 242 243 242 247 247 242 238 236 234 235 242 250 245 230 224 229 229 233 236 244 249 249 249 253 279 307 311
40 26 4 348 341 294 266 255 251 246 245 245 240 239 240 240 239 241 241 245 247 241 238 236 239 232 235 246 232 226 226 228 229 232 235 242 243 245 245 255 273 292 295
339 340 335 329 333 327 305 273 259 254 247 241 240 237 240 240 240 240 239 242 241 240 239 233 232 225 236 237 225 222 226 228 231 232 234 238 240 237 235 243 262 268 271
306 313 321 319 317 314 305 299 274 259 253 246 243 241 242 244 244 244 242 240 238 236 234 233 231 235 231 230 222 222 224 228 231 233 234 236 236 232 230 240 249 256 267
304 310 314 318 313 297 296 290 278 260 250 243 241 247 252 253 252 251 250 247 241 237 228 233 227 233 230 224 220 222 224 228 232 232 233 234 232 230 230 235 241 247 260
300 306 308 315 315 300 296 291 278 268 253 246 246 245 249 255 259 257 253 247 238 232 227 220 224 226 226 221 219 223 228 229 230 232 233 231 230 231 232 237 238 247 256
294 299 299 304 303 302 298 290 282 270 258 252 250 252 253 255 257 256 251 243 237 233 231 220 225 228 222 221 221 223 226 228 229 231 231 231 231 232 234 242 240 249 253
298 298 295 295 291 290 291 277 267 263 257 254 254 255 255 253 251 250 250 242 240 238 220 229 224 224 222 221 223 226 229 228 229 230 231 231 231 233 239 247 249 253 255
290 296 297 297 281 278 283 280 273 266 258 257 258 259 259 257 253 247 245 243 241 232 230 226 227 223 221 223 225 227 230 229 229 231 230 230 231 235 250 249 251 255 255
294 309 322 324 313 295 292 294 288 284 272 266 266 266 263 262 258 252 250 245 245 233 226 226 228 226 225 228 230 230 231 231 229 228 228 230 231 237 250 249 251 254 256
17 18 0 339 326 319 314 310 306 304 288 279 270 264 266 262 257 251 250 247 244 237 230 230 229 227 229 230 233 234 233 233 233 232 231 232 236 250 252 254 252 253 256
17 30 24 8 348 335 329 324 319 300 286 276 271 266 264 266 260 253 250 249 244 239 236 234 230 229 231 234 235 236 233 234 234 234 235 238 240 250 256 255 253 253 255
18 32 19 9 7 356 343 328 314 301 296 296 290 279 265 259 258 254 251 250 246 242 240 238 234 234 234 234 236 236 234 232 232 234 240 240 254 262 258 255 256 259 259
26 24 15 5 353 348 340 327 310 298 291 288 289 293 289 279 267 259 255 250 248 246 244 240 238 237 238 238 238 239 237 231 229 234 241 251 270 261 259 257 257 257 261
47 30 16 6 357 345 338 333 325 314 302 297 295 291 287 282 275 267 264 260 259 254 253 251 247 246 245 246 245 242 237 229 231 237 252 275 265 262 257 257 261 259 261
61 46 37 27 15 3 353 347 340 334 324 315 311 304 297 294 289 283 274 266 260 254 252 252 251 253 255 253 251 245 230 230 232 252 265 274 263 261 260 262 262 263 264
Wind_Speed_850mb
37 42 47 49 48 48 49 52 55 54 54 54 53 50 47 45 41 36 41 30 23 22 23 20 19 19 15 16 16 19 21 20 21 13 8 1 6 2 3 9 9 23 30
38 41 46 53 56 54 54 52 58 59 61 59 55 54 52 49 48 42 34 31 31 28 28 27 22 23 21 24 21 22 22 24 25 15 7 7 4 8 13 8 17 24 25
46 47 53 57 58 66 66 64 67 65 65 64 59 57 49 47 47 46 44 39 37 35 33 30 26 30 29 27 25 28 26 31 25 15 8 6 7 10 13 16 19 23 24
50 48 55 62 71 74 70 69 69 71 70 67 66 64 64 61 56 52 43 45 43 41 35 33 33 35 34 33 36 34 32 33 31 19 16 15 14 5 4 17 23 22 21
60 60 64 68 72 77 81 81 79 76 75 74 72 70 67 65 56 53 54 52 44 42 41 38 39 41 43 44 41 38 37 37 32 27 19 19 16 15 15 12 16 19 18
60 65 59 68 72 75 81 86 88 86 84 81 80 79 76 70 64 62 64 61 56 53 49 46 43 42 41 44 42 39 43 38 33 28 24 20 17 15 16 14 14 14 18
58 68 71 74 75 80 85 87 88 89 90 90 88 86 84 74 73 71 72 67 64 64 58 53 51 45 38 43 42 45 40 36 34 29 25 21 18 17 15 13 13 11 12
49 54 59 73 78 77 85 88 92 89 91 92 93 91 86 83 76 74 80 76 73 66 58 54 55 45 39 44 45 46 46 40 35 30 26 23 18 17 14 11 6 6 7
24 33 45 56 68 73 83 90 90 91 91 91 91 94 91 88 84 81 79 81 75 74 63 60 57 51 44 49 49 48 46 43 37 32 27 22 19 17 14 10 5 3 8
18 23 25 32 50 62 70 76 86 92 92 92 91 94 93 94 91 84 82 85 78 72 71 67 62 60 52 51 52 51 49 45 39 33 28 25 20 18 14 10 7 6 4
9 8 14 26 35 41 51 65 71 78 87 89 95 97 96 93 90 91 86 87 74 72 78 77 69 65 58 53 52 52 51 47 40 34 30 26 22 19 15 10 8 8 7
20 24 24 25 28 29 42 55 60 68 78 87 92 95 96 92 86 86 84 81 75 71 77 80 76 70 60 54 55 56 52 47 41 35 30 27 24 20 16 11 8 8 8
14 31 42 41 39 33 29 38 53 64 68 74 76 81 88 83 80 77 75 76 73 71 73 85 71 73 64 59 59 57 51 47 41 37 32 28 27 22 18 14 11 8 7
38 51 36 37 44 39 34 32 37 48 58 64 66 69 75 75 74 75 76 75 73 72 81 88 80 78 62 61 61 58 53 48 43 38 33 31 29 24 19 15 13 11 8
39 39 43 42 43 43 39 39 36 38 45 52 58 64 66 66 69 71 73 75 74 73 74 81 91 72 66 66 64 59 53 49 44 40 35 34 31 26 21 17 17 14 13
43 49 47 52 53 46 40 39 38 38 41 45 52 57 59 62 67 69 69 68 72 73 82 92 79 75 72 69 62 56 54 49 47 42 39 38 34 30 25 21 20 17 17
46 42 52 55 57 45 40 35 33 37 39 43 46 53 53 54 58 60 59 60 66 73 84 83 69 71 67 65 61 58 55 51 47 45 41 38 35 32 29 26 25 23 19
47 48 51 55 45 38 37 31 32 34 39 41 45 49 51 50 48 49 53 59 65 70 75 71 76 64 66 68 63 59 57 53 49 45 42 38 37 33 30 31 30 28 24
46 41 35 34 31 30 29 25 29 32 35 42 44 45 47 46 46 49 52 60 66 72 72 72 72 67 73 69 65 64 59 53 50 47 43 42 37 33 35 36 35 34 31
14 15 16 15 15 18 21 20 22 25 32 38 39 42 44 46 46 46 50 53 61 74 76 72 65 71 71 68 65 61 59 56 56 51 47 42 39 31 42 39 39 42 34
8 12 13 15 14 13 16 18 19 19 23 30 36 38 43 45 46 47 53 56 60 70 74 70 70 73 72 69 65 61 61 59 55 50 45 41 33 38 42 42 45 44 39
7 13 17 16 17 17 15 13 12 14 16 20 27 32 38 44 46 49 57 62 67 73 74 74 73 74 72 69 67 64 59 57 54 48 43 37 34 43 46 50 49 46 47
9 13 13 15 15 15 15 15 17 19 20 22 21 25 30 38 44 48 53 61 69 76 78 77 78 79 76 74 71 67 60 57 51 46 39 35 39 49 58 56 51 52 55
6 10 13 15 19 19 18 15 14 18 20 22 22 24 27 32 38 46 51 57 67 75 80 82 84 83 80 76 73 67 62 57 53 45 37 40 42 63 60 59 56 61 59
8 12 15 17 18 19 20 20 21 22 21 20 21 22 24 28 33 39 47 55 65 72 79 82 84 86 83 75 68 66 66 58 48 40 42 46 63 70 67 60 65 64 64
14 14 16 15 16 17 19 20 21 22 23 22 21 22 24 27 31 34 42 52 63 71 76 81 84 81 73 65 62 62 55 52 49 49 52 71 73 72 65 69 69 66 64
Wind_Direction_850mb
227 222 217 212 207 209 206 207 210 213 213 215 217 220 222 224 223 225 227 238 235 239 247 247 252 253 264 274 286 295 298 304 305 343 328 309 150 89 335 337 343 342 349
219 221 218 212 210 210 209 209 214 217 220 221 224 228 233 235 236 236 240 237 241 239 238 248 255 259 258 265 270 285 291 288 291 301 332 187 249 297 310 319 328 340 347
219 214 214 215 212 213 214 213 219 220 223 224 225 228 231 232 233 230 233 231 236 234 242 244 251 254 261 264 271 278 278 279 279 280 259 217 205 266 287 304 329 338 346
220 218 216 216 216 221 218 223 221 223 225 225 225 229 228 228 230 235 242 236 239 245 239 248 255 255 256 262 271 273 268 264 265 272 265 250 257 212 224 304 318 330 342
217 221 218 231 227 226 229 228 227 227 229 229 229 231 232 236 240 236 239 234 235 241 245 251 252 257 261 262 264 267 264 259 254 263 254 254 257 264 255 264 281 323 332
218 224 233 234 235 231 231 231 233 233 232 233 233 234 235 236 235 234 234 238 236 238 245 253 255 257 258 258 261 262 263 252 249 252 250 252 259 262 252 252 279 290 297
230 226 229 231 236 234 233 233 234 235 236 235 236 237 239 239 239 239 242 241 239 239 239 245 252 257 261 257 256 265 253 243 246 241 245 251 257 260 257 247 250 259 272
232 234 232 234 238 238 237 236 236 235 235 236 240 240 239 239 239 237 247 247 246 248 246 247 245 244 257 260 254 261 246 243 237 239 241 250 256 258 259 258 247 282 283
251 239 240 237 240 239 238 240 240 239 238 238 239 241 242 241 238 238 241 250 248 242 244 241 241 241 246 253 249 253 242 231 232 236 242 250 257 260 265 270 280 218 217
255 267 273 263 253 248 247 245 244 243 243 242 241 241 242 242 241 239 239 245 251 243 239 240 237 239 238 254 249 240 230 229 229 232 241 249 249 253 258 267 283 306 284
358 327 269 270 272 262 255 253 250 248 247 243 241 240 241 241 242 243 242 247 247 242 238 236 234 235 242 250 245 230 224 229 229 233 236 244 249 249 249 253 279 307 311
40 26 4 348 341 294 266 255 251 246 245 245 240 239 240 240 239 241 241 245 247 241 238 236 239 232 235 246 232 226 226 228 229 232 235 242 243 245 245 255 273 292 295
339 340 335 329 333 327 305 273 259 254 247 241 240 237 240 240 240 240 239 242 241 240 239 233 232 225 236 237 225 222 226 228 231 232 234 238 240 237 235 243 262 268 271
306 313 321 319 317 314 305 299 274 259 253 246 243 241 242 244 244 244 242 240 238 236 234 233 231 235 231 230 222 222 224 228 231 233 234 236 236 232 230 240 249 256 267
304 310 314 318 313 297 296 290 278 260 250 243 241 247 252 253 252 251 250 247 241 237 228 233 227 233 230 224 220 222 224 228 232 232 233 234 232 230 230 235 241 247 260
300 306 308 315 315 300 296 291 278 268 253 246 246 245 249 255 259 257 253 247 238 232 227 220 224 226 226 221 219 223 228 229 230 232 233 231 230 231 232 237 238 247 256
294 299 299 304 303 302 298 290 282 270 258 252 250 252 253 255 257 256 251 243 237 233 231 220 225 228 222 221 221 223 226 228 229 231 231 231 231 232 234 242 240 249 253
298 298 295 295 291 290 291 277 267 263 257 254 254 255 255 253 251 250 250 242 240 238 220 229 224 224 222 221 223 226 229 228 229 230 231 231 231 233 239 247 249 253 255
290 296 297 297 281 278 283 280 273 266 258 257 258 259 259 257 253 247 245 243 241 232 230 226 227 223 221 223 225 227 230 229 229 231 230 230 231 235 250 249 251 255 255
294 309 322 324 313 295 292 294 288 284 272 266 266 266 263 262 258 252 250 245 245 233 226 226 228 226 225 228 230 230 231 231 229 228 228 230 231 237 250 249 251 254 256
17 18 0 339 326 319 314 310 306 304 288 279 270 264 266 262 257 251 250 247 244 237 230 230 229 227 229 230 233 234 233 233 233 232 231 232 236 250 252 254 252 253 256
17 30 24 8 348 335 329 324 319 300 286 276 271 266 264 266 260 253 250 249 244 239 236 234 230 229 231 234 235 236 233 234 234 234 235 238 240 250 256 255 253 253 255
18 32 19 9 7 356 343 328 314 301 296 296 290 279 265 259 258 254 251 250 246 242 240 238 234 234 234 234 236 236 234 232 232 234 240 240 254 262 258 255 256 259 259
26 24 15 5 353 348 340 327 310 298 291 288 289 293 289 279 267 259 255 250 248 246 244 240 238 237 238 238 238 239 237 231 229 234 241 251 270 261 259 257 257 257 261
47 30 16 6 357 345 338 333 325 314 302 297 295 291 287 282 275 267 264 260 259 254 253 251 247 246 245 246 245 242 237 229 231 237 252 275 265 262 257 257 261 259 261
61 46 37 27 15 3 353 347 340 334 324 315 311 304 297 294 289 283 274 266 260 254 252 252 251 253 255 253 251 245 230 230 232 252 265 274 263 261 260 262 262 263 264